sat.trackr.live / text

‹ back to catalog

CZ-7A R/B

NORAD 69236 · 2026-116B

ROCKET_BODY UNKNOWN UNKNOWN

§ Identity

Operator
Country
PRC
Launch date
2026-05-26
Launch site
WSC
Launch vehicle
Mass (kg)
RCS (m²)

External: N2YO · Heavens-Above · Gunter

§ Orbital elements

Epoch: 2026-06-24T04:39:11.857536Z

Period
580.75 min
Inclination
19.5720°
Eccentricity
0.7180659
Mean motion
2.47956709 rev/d
Perigee alt
122.6 km
Apogee alt
33,236.7 km
Semi-major
23,057.8 km
B*
2.6117e-4
RAAN
137.0581°
Arg perigee
200.8776°
Mean anomaly
100.0771°
Rev number
71

§ Raw data

CZ-7A R/B1 69236U 26116B   26175.19388724  .00171319 -42151-6  26117-3 0  99972 69236  19.5720 137.0581 7180659 200.8776 100.0771  2.47956709   716

JSON: /api/v1/satellites/69236 · /tle

For live sub-satellite position, see the globe view (requires WebGL).

§ Visibility from observer

Set your observer location to see the next 7 days of passes ≥ 10°. The values pass through the URL so the page stays shareable.

No JS? Fill the form by hand. The geolocation button needs JavaScript.